| time (UTC) | temp F | wind direction | speed MPH | gust MPH | rain 1hr in | rain 24hr in | rain mn in | humidity % | barometer mb |
| 20260504234617 | 78 | 166 | 2.0 | 7.0 | 0.00 | 0.00 | 0.00 | 68 | 1011.5 |
| 20260504233058 | 78 | 167 | 2.0 | 6.0 | 0.00 | 0.00 | 0.00 | 67 | 1011.8 |
| 20260504231605 | 78 | 167 | 2.0 | 7.0 | 0.00 | 0.00 | 0.00 | 67 | 1011.9 |
| 20260504230057 | 78 | 167 | 3.0 | 7.0 | 0.00 | 0.00 | 0.00 | 65 | 1012.0 |
| 20260504224605 | 79 | 166 | 3.0 | 7.0 | 0.00 | 0.00 | 0.00 | 63 | 1012.2 |
| 20260504223057 | 80 | 166 | 2.0 | 7.0 | 0.00 | 0.00 | 0.00 | 62 | 1012.1 |
| 20260504221604 | 80 | 166 | 2.0 | 8.0 | 0.00 | 0.00 | 0.00 | 62 | 1012.3 |
| 20260504220117 | 79 | 167 | 1.0 | 7.0 | 0.00 | 0.00 | 0.00 | 63 | 1012.7 |
| 20260504214604 | 80 | 167 | 2.0 | 5.0 | 0.00 | 0.00 | 0.00 | 61 | 1012.8 |
| 20260504213105 | 80 | 167 | 3.0 | 10.0 | 0.00 | 0.00 | 0.00 | 59 | 1012.9 |
| 20260504211605 | 81 | 167 | 2.0 | 9.0 | 0.00 | 0.00 | 0.00 | 57 | 1013.2 |
| 20260504210106 | 82 | 167 | 2.0 | 8.0 | 0.00 | 0.00 | 0.00 | 56 | 1013.1 |
| 20260504204639 | 81 | 167 | 1.0 | 7.0 | 0.00 | 0.00 | 0.00 | 56 | 1013.5 |
| 20260504203100 | 82 | 166 | 2.0 | 5.0 | 0.00 | 0.00 | 0.00 | 55 | 1013.5 |
| 20260504201602 | 81 | 167 | 3.0 | 6.0 | 0.00 | 0.00 | 0.00 | 55 | 1013.9 |
| 20260504194600 | 82 | 166 | 2.0 | 7.0 | 0.00 | 0.00 | 0.00 | 53 | 1014.2 |
| 20260504193102 | 84 | 166 | 3.0 | 6.0 | 0.00 | 0.00 | 0.00 | 50 | 1014.3 |
| 20260504191559 | 83 | 0 | 2.0 | 8.0 | 0.00 | 0.00 | 0.00 | 55 | 1014.5 |
| 20260504184605 | 82 | 166 | 2.0 | 6.0 | 0.00 | 0.00 | 0.00 | 53 | 1015.0 |
| 20260504183102 | 84 | 166 | 2.0 | 7.0 | 0.00 | 0.00 | 0.00 | 50 | 1014.9 |
| 20260504181602 | 83 | 166 | 2.0 | 6.0 | 0.00 | 0.00 | 0.00 | 52 | 1015.1 |
| 20260504174559 | 81 | 167 | 3.0 | 7.0 | 0.00 | 0.00 | 0.00 | 53 | 1015.6 |
| 20260504173058 | 79 | 167 | 3.0 | 8.0 | 0.00 | 0.00 | 0.00 | 57 | 1015.7 |
| 20260504171602 | 79 | 166 | 3.0 | 7.0 | 0.00 | 0.00 | 0.00 | 59 | 1016.0 |
| 20260504150105 | 74 | 166 | 2.0 | 8.0 | 0.00 | 0.00 | 0.00 | 66 | 1016.8 |
| 20260504110104 | 58 | 0 | 0.0 | 0.0 | 0.00 | 0.00 | 0.00 | 85 | 1016.5 |
| 20260504081559 | 59 | 0 | 0.0 | 0.0 | 0.00 | 0.00 | 0.00 | 82 | 1017.2 |
| 20260504070106 | 60 | 0 | 0.0 | 0.0 | 0.00 | 0.00 | 0.00 | 77 | 1018.7 |
| 20260504044605 | 63 | 0 | 0.0 | 0.0 | 0.00 | 0.00 | 0.00 | 68 | 1019.6 |
| 20260504043104 | 64 | 0 | 0.0 | 0.0 | 0.00 | 0.00 | 0.00 | 66 | 1019.7 |
| 20260504041556 | 65 | 0 | 0.0 | 0.0 | 0.00 | 0.00 | 0.00 | 64 | 1019.7 |
| 20260504040058 | 65 | 0 | 0.0 | 1.0 | 0.00 | 0.00 | 0.00 | 64 | 1019.7 |
| 20260504034614 | 66 | 0 | 0.0 | 0.0 | 0.00 | 0.00 | 0.00 | 62 | 1019.6 |
| 20260504033056 | 67 | 0 | 0.0 | 2.0 | 0.00 | 0.00 | 0.00 | 60 | 1019.7 |
| 20260504031559 | 67 | 0 | 0.0 | 2.0 | 0.00 | 0.00 | 0.00 | 59 | 1019.5 |
| 20260504030058 | 68 | 0 | 0.0 | 3.0 | 0.00 | 0.00 | 0.00 | 58 | 1019.4 |
| 20260504024559 | 68 | 165 | 0.0 | 4.0 | 0.00 | 0.00 | 0.00 | 57 | 1019.3 |
| 20260504023057 | 68 | 0 | 0.0 | 2.0 | 0.00 | 0.00 | 0.00 | 56 | 1019.3 |
| 20260504021557 | 69 | 0 | 0.0 | 4.0 | 0.00 | 0.00 | 0.00 | 54 | 1019.3 |
| 20260504020059 | 70 | 0 | 0.0 | 3.0 | 0.00 | 0.00 | 0.00 | 53 | 1019.1 |
| 20260504014618 | 71 | 165 | 1.0 | 5.0 | 0.00 | 0.00 | 0.00 | 52 | 1019.0 |
| 20260504013104 | 71 | 165 | 0.0 | 3.0 | 0.00 | 0.00 | 0.00 | 50 | 1019.0 |
| 20260504011603 | 72 | 0 | 1.0 | 4.0 | 0.00 | 0.00 | 0.00 | 48 | 1019.0 |
| 20260504010100 | 73 | 0 | 0.0 | 3.0 | 0.00 | 0.00 | 0.00 | 47 | 1018.8 |
| 20260504004559 | 73 | 165 | 0.0 | 4.0 | 0.00 | 0.00 | 0.00 | 47 | 1018.8 |
| 20260504003101 | 74 | 165 | 1.0 | 7.0 | 0.00 | 0.00 | 0.00 | 45 | 1019.0 |
| 20260504001616 | 75 | 0 | 2.0 | 6.0 | 0.00 | 0.00 | 0.00 | 44 | 1018.8 |